Torna al catalogo

COSMOS 1842

AttivoMilitarePO
NORAD 17911·PAYLOAD·🇷🇺 Russia

Lanciato Apr 27, 1987 da Plesetsk Cosmodrome

Loading…

Prossimi Passaggi (prossime 24 ore)

TLE

AggiornatoSource: Space-Track

Epoca: Sep 14, 2026, 11:20 UTC

1 17911U 87038A   26257.47286954  .00026282  00000-0  29772-3 0  9992
2 17911  82.4996  80.6542 0003341 339.2894  20.8228 15.62242053154690

Traccia COSMOS 1842 in tempo reale con AllMySat

Download on the App Store